This is the latest recevied weather packets stored in our database for station/object KN6ETB-1. If no packets are shown the sender has not sent any weather packets the latest 10 day(s).
| Time | Temp. | Humidity | Pressure | Rain* | Wind** | Luminosity | Snow |
|---|---|---|---|---|---|---|---|
| 1777867387 | 15° C | 67% | 1010.3 hPa | 0 mm | - | 0 W/m² | - |
| 1777867083 | 15° C | 67% | 1010.2 hPa | 0 mm | - | 0 W/m² | - |
| 1777866780 | 15° C | 68% | 1010.3 hPa | 0 mm | - | 0 W/m² | - |
| 1777866477 | 15° C | 68% | 1010.1 hPa | 0 mm | - | 0 W/m² | - |
| 1777866175 | 15° C | 68% | 1010 hPa | 0 mm | - | 0 W/m² | - |
| 1777865872 | 15.56° C | 68% | 1009.9 hPa | 0 mm | - | 0 W/m² | - |
| 1777865569 | 15.56° C | 67% | 1009.9 hPa | 0 mm | - | 0 W/m² | - |
| 1777865266 | 15.56° C | 67% | 1009.9 hPa | 0 mm | - | 0 W/m² | - |
| 1777864963 | 15.56° C | 66% | 1009.9 hPa | 0 mm | - | 0 W/m² | - |
| 1777864660 | 15.56° C | 66% | 1009.9 hPa | 0 mm | - | 0 W/m² | - |
| 1777864358 | 16.11° C | 65% | 1009.9 hPa | 0 mm | - | 0 W/m² | - |
| 1777864053 | 16.11° C | 65% | 1009.8 hPa | 0 mm | - | 0 W/m² | - |
| 1777863750 | 16.11° C | 66% | 1009.7 hPa | 0 mm | - | 1 W/m² | - |
| 1777863447 | 16.11° C | 65% | 1009.8 hPa | 0 mm | - | 4 W/m² | - |
| 1777863144 | 16.11° C | 66% | 1009.7 hPa | 0 mm | - | 8 W/m² | - |
| 1777862841 | 16.11° C | 66% | 1009.6 hPa | 0 mm | - | 14 W/m² | - |
| 1777862537 | 16.67° C | 65% | 1009.7 hPa | 0 mm | - | 17 W/m² | - |
| 1777862234 | 16.67° C | 65% | 1009.6 hPa | 0 mm | - | 23 W/m² | - |
| 1777861930 | 16.67° C | 65% | 1009.6 hPa | 0 mm | - | 27 W/m² | - |
| 1777861626 | 16.67° C | 65% | 1009.6 hPa | 0 mm | - | 30 W/m² | - |
| 1777861323 | 16.67° C | 65% | 1009.3 hPa | 0 mm | - | 31 W/m² | - |
| 1777861020 | 16.67° C | 65% | 1009.4 hPa | 0 mm | - | 32 W/m² | - |
| 1777860716 | 16.67° C | 64% | 1009.1 hPa | 0 mm | - | 33 W/m² | - |
| 1777860414 | 17.22° C | 64% | 1009.1 hPa | 0 mm | - | 35 W/m² | - |
| 1777860109 | 17.78° C | 63% | 1009.2 hPa | 0 mm | - | 50 W/m² | - |
* Rain latest hour (hover to see other rain measurements)
** Current wind speed in m/s (hover to see current wind gust speed)